DW3224 Weather Reports


time (UTC)temp
C
wind
direction
speed
KPH
gust
KPH
rain 1hr
cm
rain 24hr
cm
rain mn
cm
humidity
%
barometer
mb
20260503212006 20 0 0.0 0.0 0.00 0.00 0.00 58 1012.5
20260503211504 21 0 0.0 0.0 0.00 0.00 0.00 59 1012.5
20260503211005 20 0 0.0 0.0 0.00 0.00 0.00 60 1012.5
20260503210505 20 0 0.0 0.0 0.00 0.00 0.00 61 1012.6
20260503205505 20 0 0.0 0.0 0.00 0.00 0.00 60 1012.8
20260503205005 19 0 0.0 0.0 0.00 0.00 0.00 64 1012.9
20260503204505 19 0 0.0 0.0 0.00 0.00 0.00 64 1013.0
20260503204005 18 0 0.0 0.0 0.00 0.00 0.00 66 1013.0
20260503203505 18 0 0.0 0.0 0.00 0.00 0.00 67 1013.0
20260503203005 18 0 0.0 0.0 0.00 0.00 0.00 68 1012.9
20260503202505 17 0 0.0 0.0 0.00 0.00 0.00 69 1013.0
20260503202005 17 0 0.0 0.0 0.00 0.00 0.00 71 1013.0
20260503201505 16 0 0.0 0.0 0.00 0.00 0.00 72 1013.1
20260503200505 17 0 0.0 0.0 0.00 0.00 0.00 68 1013.2
20260503200006 17 0 0.0 0.0 0.00 0.00 0.00 68 1013.2
20260503195005 17 0 0.0 0.0 0.00 0.00 0.00 65 1013.3
20260503194005 18 0 0.0 0.0 0.00 0.00 0.00 65 1013.4
20260503193505 19 0 0.0 0.0 0.00 0.00 0.00 63 1013.4
20260503193005 19 0 0.0 0.0 0.00 0.00 0.00 64 1013.5
20260503192505 19 0 0.0 0.0 0.00 0.00 0.00 64 1013.6
20260503191505 18 0 0.0 0.0 0.00 0.00 0.00 70 1013.7
20260503191006 17 0 0.0 0.0 0.00 0.00 0.00 69 1013.7
20260503190005 17 0 0.0 0.0 0.00 0.00 0.00 68 1013.7
20260503185505 17 0 0.0 0.0 0.00 0.00 0.00 68 1013.8
20260503185005 17 0 0.0 0.0 0.00 0.00 0.00 68 1013.9
20260503184005 17 0 0.0 0.0 0.00 0.00 0.00 70 1014.0
20260503183505 16 0 0.0 0.0 0.00 0.00 0.00 70 1014.1
20260503183005 17 0 0.0 0.0 0.00 0.00 0.00 70 1014.1
20260503182505 17 0 0.0 0.0 0.00 0.00 0.00 69 1014.2
20260503182006 17 0 0.0 0.0 0.00 0.00 0.00 71 1014.3
20260503181506 16 0 0.0 0.0 0.00 0.00 0.00 70 1014.2
20260503180005 16 0 0.0 0.0 0.00 0.00 0.00 71 1014.4
20260503175505 16 0 0.0 0.0 0.00 0.00 0.00 73 1014.5
20260503175005 16 0 0.0 0.0 0.00 0.00 0.00 72 1014.5
20260503174505 16 0 0.0 0.0 0.00 0.00 0.00 72 1014.5
20260503174005 16 0 0.0 0.0 0.00 0.00 0.00 74 1014.6
20260503173505 15 0 0.0 0.0 0.00 0.00 0.00 75 1014.6
20260503173005 15 0 0.0 0.0 0.00 0.00 0.00 74 1014.7
20260503172505 15 0 0.0 0.0 0.00 0.00 0.00 74 1014.7
20260503172006 15 0 0.0 0.0 0.00 0.00 0.00 74 1014.7
20260503171505 16 0 0.0 0.0 0.00 0.00 0.00 73 1014.6
20260503171004 16 0 0.0 0.0 0.00 0.00 0.00 74 1014.7
20260503170505 16 0 0.0 0.0 0.00 0.00 0.00 74 1014.7
20260503151005 14 0 0.0 0.0 0.00 0.00 0.00 78 1014.9
20260503131005 13 0 0.0 0.0 0.00 0.00 0.00 75 1014.5
20260503130505 13 0 0.0 0.0 0.00 0.00 0.00 75 1014.5
20260503110505 15 0 0.0 0.0 0.00 0.00 0.00 69 1014.7
20260503090505 15 0 0.0 0.0 0.00 0.00 0.00 69 1014.5
20260503081505 15 0 0.0 0.0 0.00 0.00 0.00 69 1014.5
20260503080505 15 0 0.0 0.0 0.00 0.00 0.00 69 1014.5
20260503072505 16 0 0.0 0.0 0.00 0.00 0.00 64 1014.5
20260503071506 16 0 0.0 0.0 0.00 0.00 0.00 64 1014.4
20260503071005 17 0 0.0 0.0 0.00 0.00 0.00 63 1014.4
20260503054505 17 0 0.0 0.0 0.00 0.00 0.00 63 1014.3
20260503054005 17 0 0.0 0.0 0.00 0.00 0.00 63 1014.3
20260503053504 17 0 0.0 0.0 0.00 0.00 0.00 62 1014.3
20260503053005 17 0 0.0 0.0 0.00 0.00 0.00 62 1014.3
20260503052505 17 0 0.0 0.0 0.00 0.00 0.00 61 1014.3
20260503052005 17 0 0.0 0.0 0.00 0.00 0.00 61 1014.4
20260503051505 17 0 0.0 0.0 0.00 0.00 0.00 61 1014.4
20260503051005 17 0 0.0 0.0 0.00 0.00 0.00 61 1014.4
20260503045505 17 0 0.0 0.0 0.00 0.00 0.00 62 1014.3
20260503045004 17 0 0.0 0.0 0.00 0.00 0.00 62 1014.3
20260503044504 17 0 0.0 0.0 0.00 0.00 0.00 62 1014.2
20260503044005 17 0 0.0 0.0 0.00 0.00 0.00 62 1014.2
20260503043505 17 0 0.0 0.0 0.00 0.00 0.00 62 1014.2
20260503043004 17 0 0.0 0.0 0.00 0.00 0.00 62 1014.1
20260503042504 17 0 0.0 0.0 0.00 0.00 0.00 62 1014.0
20260503042005 17 0 0.0 0.0 0.00 0.00 0.00 61 1014.1
20260503041505 17 0 0.0 0.0 0.00 0.00 0.00 61 1014.0
20260503041005 17 0 0.0 0.0 0.00 0.00 0.00 60 1014.0
20260503040505 17 0 0.0 0.0 0.00 0.00 0.00 61 1014.0
20260503040005 17 0 0.0 0.0 0.00 0.00 0.00 60 1014.0
20260503035505 17 0 0.0 0.0 0.00 0.00 0.00 60 1013.9
20260503035005 17 0 0.0 0.0 0.00 0.00 0.00 60 1013.9
20260503034504 17 0 0.0 0.0 0.00 0.00 0.00 59 1013.8
20260503033505 18 0 0.0 0.0 0.00 0.00 0.00 58 1013.6
20260503032505 19 0 0.0 0.0 0.00 0.00 0.00 54 1013.5
20260503032004 19 0 0.0 0.0 0.00 0.00 0.00 55 1013.5
20260503031004 20 0 0.0 0.0 0.00 0.00 0.00 53 1013.4
20260503030505 20 0 0.0 0.0 0.00 0.00 0.00 54 1013.4
20260503025505 20 0 0.0 0.0 0.00 0.00 0.00 55 1013.4
20260503024505 19 0 0.0 0.0 0.00 0.00 0.00 57 1013.4
20260503024004 19 0 0.0 0.0 0.00 0.00 0.00 57 1013.5
20260503023504 19 0 0.0 0.0 0.00 0.00 0.00 56 1013.5
20260503023005 19 0 0.0 0.0 0.00 0.00 0.00 56 1013.5
20260503022004 20 0 0.0 0.0 0.00 0.00 0.00 55 1013.5
20260503021505 20 0 0.0 0.0 0.00 0.00 0.00 56 1013.4
20260503020505 20 0 0.0 0.0 0.00 0.00 0.00 56 1013.5
20260503015504 20 0 0.0 0.0 0.00 0.00 0.00 56 1013.6
20260503015005 20 0 0.0 0.0 0.00 0.00 0.00 56 1013.6
20260503014504 20 0 0.0 0.0 0.00 0.00 0.00 57 1013.7
20260503014004 19 0 0.0 0.0 0.00 0.00 0.00 58 1013.8
20260503013504 19 0 0.0 0.0 0.00 0.00 0.00 59 1013.8
20260503013004 19 0 0.0 0.0 0.00 0.00 0.00 59 1013.7
20260503012505 19 0 0.0 0.0 0.00 0.00 0.00 59 1013.8
20260503012005 19 0 0.0 0.0 0.00 0.00 0.00 59 1013.9
20260503011005 19 0 0.0 0.0 0.00 0.00 0.00 59 1014.0
20260503010504 19 0 0.0 0.0 0.00 0.00 0.00 59 1014.0
20260503010005 19 0 0.0 0.0 0.00 0.00 0.00 60 1014.0
20260503005505 19 0 0.0 0.0 0.00 0.00 0.00 60 1014.0
20260503005005 18 0 0.0 0.0 0.00 0.00 0.00 61 1014.1
20260503003504 18 0 0.0 0.0 0.00 0.00 0.00 61 1014.1
20260503003004 18 0 0.0 0.0 0.00 0.00 0.00 61 1014.1
20260503002505 18 0 0.0 0.0 0.00 0.00 0.00 63 1014.1
20260503002005 18 0 0.0 0.0 0.00 0.00 0.00 63 1014.0
20260503001505 18 0 0.0 0.0 0.00 0.00 0.00 65 1014.1
20260503001005 18 0 0.0 0.0 0.00 0.00 0.00 65 1014.2
20260503000504 18 0 0.0 0.0 0.00 0.00 0.00 65 1014.2
20260503000004 18 0 0.0 0.0 0.00 0.00 0.00 65 1014.2
20260502235505 17 0 0.0 0.0 0.00 0.00 0.00 66 1014.3
20260502235005 17 0 0.0 0.0 0.00 0.00 0.00 66 1014.4
20260502234505 17 0 0.0 0.0 0.00 0.00 0.00 66 1014.4
20260502234005 17 0 0.0 0.0 0.00 0.00 0.00 68 1014.4
20260502233504 17 0 0.0 0.0 0.00 0.00 0.00 69 1014.6
20260502231005 16 0 0.0 0.0 0.00 0.00 0.00 73 1014.9
20260502230505 16 0 0.0 0.0 0.00 0.00 0.00 72 1015.0
20260502230005 16 0 0.0 0.0 0.00 0.00 0.00 72 1015.0
20260502225505 16 0 0.0 0.0 0.00 0.00 0.00 72 1015.0
20260502225005 16 0 0.0 0.0 0.00 0.00 0.00 73 1015.2
20260502224505 16 0 0.0 0.0 0.00 0.00 0.00 74 1015.2
20260502224005 16 0 0.0 0.0 0.00 0.00 0.00 74 1015.4
20260502223505 16 0 0.0 0.0 0.00 0.00 0.00 73 1015.4
20260502223004 16 0 0.0 0.0 0.00 0.00 0.00 73 1015.4
20260502222504 16 0 0.0 0.0 0.00 0.00 0.00 73 1015.5
20260502221004 15 0 0.0 0.0 0.00 0.00 0.00 76 1015.7
20260502220005 16 0 0.0 0.0 0.00 0.00 0.00 75 1015.9
20260502215505 16 0 0.0 0.0 0.00 0.00 0.00 76 1016.0
20260502215005 16 0 0.0 0.0 0.00 0.00 0.00 75 1016.0
20260502214505 16 0 0.0 0.0 0.00 0.00 0.00 75 1016.0
20260502213505 16 0 0.0 0.0 0.00 0.00 0.00 75 1016.1